Time,TemperatureF,DewpointF,PressureIn,WindDirection,WindDirectionDegrees,WindSpeedMPH,WindSpeedGustMPH,Humidity,HourlyPrecipIn,Conditions,Clouds,dailyrainin,SoftwareType,DateUTC
2013-10-21 00:01:00,39.9,38.7,30.05,SSE,160,0.0,0.0,95,0.00,,,0.00,meteobridge,2013-10-21 04:01:00,
2013-10-21 00:07:00,39.7,38.5,30.05,SSE,160,0.0,0.0,95,0.00,,,0.00,meteobridge,2013-10-21 04:07:00,
2013-10-21 00:12:00,39.6,38.3,30.05,SSE,160,0.0,0.0,95,0.00,,,0.00,meteobridge,2013-10-21 04:12:00,
2013-10-21 00:17:00,39.6,38.3,30.05,SSE,160,0.0,0.0,95,0.00,,,0.00,meteobridge,2013-10-21 04:17:00,
2013-10-21 00:22:00,39.6,38.3,30.05,SSE,160,0.0,0.0,95,0.00,,,0.00,meteobridge,2013-10-21 04:22:00,
2013-10-21 00:27:00,39.4,38.1,30.05,SSE,160,0.0,0.0,95,0.00,,,0.00,meteobridge,2013-10-21 04:27:00,
2013-10-21 00:33:00,39.4,38.1,30.05,SSE,160,0.0,0.0,95,0.00,,,0.00,meteobridge,2013-10-21 04:33:00,
2013-10-21 00:38:00,39.2,37.9,30.05,SSE,160,0.0,0.0,95,0.00,,,0.00,meteobridge,2013-10-21 04:38:00,
2013-10-21 00:43:00,39.0,37.8,30.05,SSE,160,0.0,0.0,95,0.00,,,0.00,meteobridge,2013-10-21 04:43:00,
2013-10-21 00:48:00,39.0,37.8,30.04,SSE,160,0.0,0.0,95,0.00,,,0.00,meteobridge,2013-10-21 04:48:00,
2013-10-21 00:53:00,39.0,37.8,30.04,SSE,160,0.0,0.0,95,0.00,,,0.00,meteobridge,2013-10-21 04:53:00,
2013-10-21 00:58:00,38.8,37.6,30.04,SSE,160,0.0,0.0,95,0.00,,,0.00,meteobridge,2013-10-21 04:58:00,
2013-10-21 01:03:00,38.8,37.6,30.04,SSE,160,0.0,0.0,95,0.00,,,0.00,meteobridge,2013-10-21 05:03:00,
2013-10-21 01:08:00,38.8,37.6,30.04,SSE,160,0.0,0.0,95,0.00,,,0.00,meteobridge,2013-10-21 05:08:00,
2013-10-21 01:14:00,38.7,37.4,30.04,SSE,160,0.0,0.0,95,0.00,,,0.00,meteobridge,2013-10-21 05:14:00,
2013-10-21 01:19:00,38.5,37.4,30.04,SSE,160,0.0,0.0,96,0.00,,,0.00,meteobridge,2013-10-21 05:19:00,
2013-10-21 01:24:00,38.5,37.4,30.04,SSE,160,0.0,0.0,96,0.00,,,0.00,meteobridge,2013-10-21 05:24:00,
2013-10-21 01:29:00,38.5,37.4,30.04,SSE,160,0.0,0.0,96,0.00,,,0.00,meteobridge,2013-10-21 05:29:00,
2013-10-21 01:35:00,38.3,37.2,30.04,SSE,160,0.0,0.0,96,0.00,,,0.00,meteobridge,2013-10-21 05:35:00,
2013-10-21 01:40:00,38.3,37.2,30.04,SSE,160,0.0,0.0,96,0.00,,,0.00,meteobridge,2013-10-21 05:40:00,
2013-10-21 01:45:00,38.1,37.0,30.04,SSE,160,0.0,0.0,96,0.00,,,0.00,meteobridge,2013-10-21 05:45:00,
2013-10-21 01:50:00,38.1,37.0,30.04,SSE,160,0.0,0.0,96,0.00,,,0.00,meteobridge,2013-10-21 05:50:00,
2013-10-21 01:55:00,38.1,37.0,30.04,SSE,160,0.0,0.0,96,0.00,,,0.00,meteobridge,2013-10-21 05:55:00,
2013-10-21 02:00:00,38.1,37.0,30.04,SSE,160,0.0,0.0,96,0.00,,,0.00,meteobridge,2013-10-21 06:00:00,
2013-10-21 02:06:00,37.9,36.9,30.04,SSE,160,0.0,0.0,96,0.00,,,0.00,meteobridge,2013-10-21 06:06:00,
2013-10-21 02:11:00,37.9,36.9,30.04,SSE,160,0.0,0.0,96,0.00,,,0.00,meteobridge,2013-10-21 06:11:00,
2013-10-21 02:16:00,37.9,36.9,30.04,SSE,160,0.0,0.0,96,0.00,,,0.00,meteobridge,2013-10-21 06:16:00,
2013-10-21 02:21:00,37.8,36.7,30.04,SSE,160,0.0,0.0,96,0.00,,,0.00,meteobridge,2013-10-21 06:21:00,
2013-10-21 02:26:00,37.8,36.7,30.04,SSE,160,0.0,0.0,96,0.00,,,0.00,meteobridge,2013-10-21 06:26:00,
2013-10-21 02:31:00,37.6,36.5,30.04,SSE,160,0.0,0.0,96,0.00,,,0.00,meteobridge,2013-10-21 06:31:00,
2013-10-21 02:37:00,37.6,36.5,30.04,SSE,160,0.0,0.0,96,0.00,,,0.00,meteobridge,2013-10-21 06:37:00,
2013-10-21 02:42:00,37.6,36.5,30.04,SSE,160,0.0,0.0,96,0.00,,,0.00,meteobridge,2013-10-21 06:42:00,
2013-10-21 02:47:00,37.6,36.9,30.04,SSE,160,0.0,0.0,97,0.00,,,0.00,meteobridge,2013-10-21 06:47:00,
2013-10-21 02:52:00,37.2,36.5,30.04,SSE,160,0.0,0.0,97,0.00,,,0.00,meteobridge,2013-10-21 06:52:00,
2013-10-21 02:57:00,37.2,36.5,30.04,SSE,160,0.0,0.0,97,0.00,,,0.00,meteobridge,2013-10-21 06:57:00,
2013-10-21 03:03:00,37.2,36.5,30.04,SSE,160,0.0,0.0,97,0.00,,,0.00,meteobridge,2013-10-21 07:03:00,
2013-10-21 03:08:00,37.2,36.5,30.04,SSE,160,0.0,0.0,97,0.00,,,0.00,meteobridge,2013-10-21 07:08:00,
2013-10-21 03:13:00,37.0,36.3,30.04,SSE,160,0.0,0.0,97,0.00,,,0.00,meteobridge,2013-10-21 07:13:00,
2013-10-21 03:18:00,37.2,36.5,30.03,SSE,160,0.0,0.0,97,0.00,,,0.00,meteobridge,2013-10-21 07:18:00,
2013-10-21 03:23:00,37.2,36.5,30.03,SSE,160,0.0,0.0,97,0.00,,,0.00,meteobridge,2013-10-21 07:23:00,
2013-10-21 03:28:00,37.2,36.5,30.03,SSE,160,0.0,0.0,97,0.00,,,0.00,meteobridge,2013-10-21 07:28:00,
2013-10-21 03:34:00,37.0,36.3,30.03,SSE,160,0.0,0.0,97,0.00,,,0.00,meteobridge,2013-10-21 07:34:00,
2013-10-21 03:39:00,36.9,36.1,30.03,SSE,160,0.0,0.0,97,0.00,,,0.00,meteobridge,2013-10-21 07:39:00,
2013-10-21 03:44:00,36.9,36.1,30.03,SSE,160,0.0,0.0,97,0.00,,,0.00,meteobridge,2013-10-21 07:44:00,
2013-10-21 03:49:00,36.7,36.0,30.03,SSE,160,0.0,0.0,97,0.00,,,0.00,meteobridge,2013-10-21 07:49:00,
2013-10-21 03:54:00,36.7,36.0,30.03,SSE,160,0.0,0.0,97,0.00,,,0.00,meteobridge,2013-10-21 07:54:00,
2013-10-21 03:59:00,36.7,36.0,30.03,SSE,160,0.0,0.0,97,0.00,,,0.00,meteobridge,2013-10-21 07:59:00,
2013-10-21 04:05:00,36.7,36.0,30.03,SSE,160,0.0,0.0,97,0.00,,,0.00,meteobridge,2013-10-21 08:05:00,
2013-10-21 04:10:00,36.7,36.0,30.03,SSE,160,0.0,0.0,97,0.00,,,0.00,meteobridge,2013-10-21 08:10:00,
2013-10-21 04:15:00,36.5,35.8,30.03,SSE,160,0.0,0.0,97,0.00,,,0.00,meteobridge,2013-10-21 08:15:00,
2013-10-21 04:20:00,36.1,35.4,30.03,SSE,160,0.0,0.0,97,0.00,,,0.00,meteobridge,2013-10-21 08:20:00,
2013-10-21 04:25:00,36.1,35.4,30.03,SSE,160,0.0,0.0,97,0.00,,,0.00,meteobridge,2013-10-21 08:25:00,
2013-10-21 04:30:00,36.1,35.4,30.03,SSE,160,0.0,0.0,97,0.00,,,0.00,meteobridge,2013-10-21 08:30:00,
2013-10-21 04:36:00,36.0,35.2,30.03,SSE,160,0.0,0.0,97,0.00,,,0.00,meteobridge,2013-10-21 08:36:00,
2013-10-21 04:41:00,36.0,35.2,30.03,SSE,160,0.0,0.0,97,0.00,,,0.00,meteobridge,2013-10-21 08:41:00,
2013-10-21 04:46:00,36.0,35.2,30.03,SSE,160,0.0,0.0,97,0.00,,,0.00,meteobridge,2013-10-21 08:46:00,
2013-10-21 04:51:00,36.0,35.2,30.03,SSE,160,0.0,0.0,97,0.00,,,0.00,meteobridge,2013-10-21 08:51:00,
2013-10-21 04:56:00,36.0,35.2,30.03,SSE,160,0.0,0.0,97,0.00,,,0.00,meteobridge,2013-10-21 08:56:00,
2013-10-21 05:01:00,35.8,35.1,30.03,SSE,160,0.0,0.0,97,0.00,,,0.00,meteobridge,2013-10-21 09:01:00,
2013-10-21 05:06:00,35.8,35.1,30.03,SSE,160,0.0,0.0,97,0.00,,,0.00,meteobridge,2013-10-21 09:06:00,
2013-10-21 05:12:00,35.8,35.1,30.03,SSE,160,0.0,0.0,97,0.00,,,0.00,meteobridge,2013-10-21 09:12:00,
2013-10-21 05:17:00,35.6,34.9,30.04,SSE,160,0.0,0.0,97,0.00,,,0.00,meteobridge,2013-10-21 09:17:00,
2013-10-21 05:22:00,35.4,34.7,30.04,SSE,160,0.0,0.0,97,0.00,,,0.00,meteobridge,2013-10-21 09:22:00,
2013-10-21 05:27:00,35.2,34.5,30.04,SSE,160,0.0,0.0,97,0.00,,,0.00,meteobridge,2013-10-21 09:27:00,
2013-10-21 05:33:00,35.2,34.5,30.05,SSE,160,0.0,0.0,97,0.00,,,0.00,meteobridge,2013-10-21 09:33:00,
2013-10-21 05:38:00,35.2,34.5,30.05,SSE,160,0.0,0.0,97,0.00,,,0.00,meteobridge,2013-10-21 09:38:00,
2013-10-21 05:43:00,35.2,34.5,30.05,SSE,160,0.0,0.0,97,0.00,,,0.00,meteobridge,2013-10-21 09:43:00,
2013-10-21 05:48:00,35.1,34.3,30.05,SSE,160,0.0,0.0,97,0.00,,,0.00,meteobridge,2013-10-21 09:48:00,
2013-10-21 05:53:00,34.9,34.2,30.05,SSE,160,0.0,0.0,97,0.00,,,0.00,meteobridge,2013-10-21 09:53:00,
2013-10-21 05:58:00,34.9,34.2,30.05,SSE,160,0.0,0.0,97,0.00,,,0.00,meteobridge,2013-10-21 09:58:00,
2013-10-21 06:04:00,34.7,34.2,30.05,SSE,160,0.0,0.0,98,0.00,,,0.00,meteobridge,2013-10-21 10:04:00,
2013-10-21 06:09:00,34.7,34.2,30.05,SSE,160,0.0,0.0,98,0.00,,,0.00,meteobridge,2013-10-21 10:09:00,
2013-10-21 06:14:00,34.7,34.2,30.05,SSE,160,0.0,0.0,98,0.00,,,0.00,meteobridge,2013-10-21 10:14:00,
2013-10-21 06:19:00,34.7,34.2,30.06,SSE,160,0.0,0.0,98,0.00,,,0.00,meteobridge,2013-10-21 10:19:00,
2013-10-21 06:24:00,34.7,34.2,30.06,SSE,160,0.0,0.0,98,0.00,,,0.00,meteobridge,2013-10-21 10:24:00,
2013-10-21 06:29:00,34.7,34.2,30.06,SSE,160,0.0,0.0,98,0.00,,,0.00,meteobridge,2013-10-21 10:29:00,
2013-10-21 06:35:00,34.5,34.0,30.06,SSE,160,0.0,0.0,98,0.00,,,0.00,meteobridge,2013-10-21 10:35:00,
2013-10-21 06:40:00,34.7,34.2,30.06,SSE,160,0.0,0.0,98,0.00,,,0.00,meteobridge,2013-10-21 10:40:00,
2013-10-21 06:45:00,34.5,34.0,30.06,SSE,160,0.0,0.0,98,0.00,,,0.00,meteobridge,2013-10-21 10:45:00,
2013-10-21 06:50:00,34.5,34.0,30.06,SSE,160,0.0,0.0,98,0.00,,,0.00,meteobridge,2013-10-21 10:50:00,
2013-10-21 06:55:00,34.3,33.8,30.06,SSE,160,0.0,0.0,98,0.00,,,0.00,meteobridge,2013-10-21 10:55:00,
2013-10-21 07:00:00,34.3,33.8,30.06,SSE,160,0.0,0.0,98,0.00,,,0.00,meteobridge,2013-10-21 11:00:00,
2013-10-21 07:06:00,34.3,33.8,30.06,SSE,160,0.0,0.0,98,0.00,,,0.00,meteobridge,2013-10-21 11:06:00,
2013-10-21 07:11:00,34.2,33.6,30.06,SSE,160,0.0,0.0,98,0.00,,,0.00,meteobridge,2013-10-21 11:11:00,
2013-10-21 07:16:00,34.3,33.8,30.06,SSE,160,0.0,0.0,98,0.00,,,0.00,meteobridge,2013-10-21 11:16:00,
2013-10-21 07:21:00,34.3,33.8,30.06,SSE,160,0.0,0.0,98,0.00,,,0.00,meteobridge,2013-10-21 11:21:00,
2013-10-21 07:26:00,34.2,33.6,30.06,SSE,160,0.0,0.0,98,0.00,,,0.00,meteobridge,2013-10-21 11:26:00,
2013-10-21 07:32:00,34.2,33.6,30.07,SSE,160,0.0,0.0,98,0.00,,,0.00,meteobridge,2013-10-21 11:32:00,
2013-10-21 07:37:00,34.0,33.4,30.07,SSE,160,0.0,0.0,98,0.00,,,0.00,meteobridge,2013-10-21 11:37:00,
2013-10-21 07:42:00,34.0,33.4,30.07,SSE,160,0.0,0.0,98,0.00,,,0.00,meteobridge,2013-10-21 11:42:00,
2013-10-21 07:47:00,34.0,33.4,30.08,SSE,160,0.0,0.0,98,0.00,,,0.00,meteobridge,2013-10-21 11:47:00,
2013-10-21 07:52:00,33.8,33.3,30.08,SSE,160,0.0,0.0,98,0.00,,,0.00,meteobridge,2013-10-21 11:52:00,
2013-10-21 07:57:00,33.8,33.3,30.08,SSE,160,0.0,0.0,98,0.00,,,0.00,meteobridge,2013-10-21 11:57:00,
2013-10-21 08:02:00,33.8,33.3,30.08,SSE,160,0.0,0.0,98,0.00,,,0.00,meteobridge,2013-10-21 12:02:00,
2013-10-21 08:08:00,33.8,33.3,30.08,SSE,160,0.0,0.0,98,0.00,,,0.00,meteobridge,2013-10-21 12:08:00,
2013-10-21 08:13:00,33.8,33.3,30.08,SSE,160,0.0,0.0,98,0.00,,,0.00,meteobridge,2013-10-21 12:13:00,
2013-10-21 08:18:00,33.8,33.6,30.08,SSE,160,0.0,0.0,99,0.00,,,0.00,meteobridge,2013-10-21 12:18:00,
2013-10-21 08:23:00,34.3,34.2,30.08,SSE,160,0.0,0.0,99,0.00,,,0.00,meteobridge,2013-10-21 12:23:00,
2013-10-21 08:28:00,34.3,34.2,30.08,SSE,160,0.0,0.0,99,0.00,,,0.00,meteobridge,2013-10-21 12:28:00,
2013-10-21 08:34:00,34.7,34.5,30.09,SSE,160,0.0,0.0,99,0.00,,,0.00,meteobridge,2013-10-21 12:34:00,
2013-10-21 08:39:00,35.1,34.9,30.09,SSE,160,0.0,0.0,99,0.00,,,0.00,meteobridge,2013-10-21 12:39:00,
2013-10-21 08:44:00,35.4,35.2,30.09,SSE,160,0.0,0.0,99,0.00,,,0.00,meteobridge,2013-10-21 12:44:00,
2013-10-21 08:49:00,36.0,35.8,30.09,SSE,160,0.0,0.0,99,0.00,,,0.00,meteobridge,2013-10-21 12:49:00,
2013-10-21 08:54:00,37.2,37.2,30.09,SSE,160,0.0,0.0,100,0.00,,,0.00,meteobridge,2013-10-21 12:54:00,
2013-10-21 08:59:00,39.2,39.2,30.08,SSE,160,0.0,0.0,100,0.00,,,0.00,meteobridge,2013-10-21 12:59:00,
2013-10-21 09:05:00,40.8,40.8,30.08,SSE,160,0.0,2.0,100,0.00,,,0.00,meteobridge,2013-10-21 13:05:00,
2013-10-21 09:10:00,41.9,41.9,30.08,SSE,161,0.0,0.0,100,0.00,,,0.00,meteobridge,2013-10-21 13:10:00,
2013-10-21 09:15:00,42.6,42.6,30.08,SSE,161,0.9,0.9,100,0.00,,,0.00,meteobridge,2013-10-21 13:15:00,
2013-10-21 09:20:00,43.3,43.3,30.08,SSE,154,0.0,0.0,100,0.00,,,0.00,meteobridge,2013-10-21 13:20:00,
2013-10-21 09:25:00,43.9,43.9,30.08,SSE,154,0.9,2.0,100,0.00,,,0.00,meteobridge,2013-10-21 13:25:00,
2013-10-21 09:30:00,44.4,44.2,30.08,SSE,154,0.0,0.0,99,0.00,,,0.00,meteobridge,2013-10-21 13:30:00,
2013-10-21 09:35:00,45.1,45.0,30.08,WSW,239,0.9,0.9,99,0.00,,,0.00,meteobridge,2013-10-21 13:35:00,
2013-10-21 09:41:00,45.9,45.7,30.08,WSW,239,0.0,0.0,99,0.00,,,0.00,meteobridge,2013-10-21 13:41:00,
2013-10-21 09:46:00,46.8,46.2,30.07,WSW,239,0.0,0.0,98,0.00,,,0.00,meteobridge,2013-10-21 13:46:00,
2013-10-21 09:51:00,47.7,46.9,30.07,WSW,257,0.0,0.0,97,0.00,,,0.00,meteobridge,2013-10-21 13:51:00,
2013-10-21 09:56:00,48.4,46.9,30.07,WSW,257,0.0,0.0,95,0.00,,,0.00,meteobridge,2013-10-21 13:56:00,
2013-10-21 10:02:00,49.1,46.9,30.07,WSW,256,0.0,0.0,92,0.00,,,0.00,meteobridge,2013-10-21 14:02:00,
2013-10-21 10:07:00,50.2,46.8,30.07,WSW,256,0.0,0.9,88,0.00,,,0.00,meteobridge,2013-10-21 14:07:00,
2013-10-21 10:12:00,51.1,46.0,30.07,WSW,256,0.0,0.9,83,0.00,,,0.00,meteobridge,2013-10-21 14:12:00,
2013-10-21 10:17:00,51.6,45.7,30.07,WSW,256,0.0,0.0,80,0.00,,,0.00,meteobridge,2013-10-21 14:17:00,
2013-10-21 10:22:00,52.5,44.4,30.07,SSW,199,0.0,6.0,74,0.00,,,0.00,meteobridge,2013-10-21 14:22:00,
2013-10-21 10:27:00,53.6,43.0,30.07,WSW,246,0.9,6.0,67,0.00,,,0.00,meteobridge,2013-10-21 14:27:00,
2013-10-21 10:32:00,54.3,42.8,30.07,SSW,209,2.0,6.0,65,0.00,,,0.00,meteobridge,2013-10-21 14:32:00,
2013-10-21 10:37:00,54.9,42.4,30.07,SSE,158,0.9,2.0,63,0.00,,,0.00,meteobridge,2013-10-21 14:37:00,
2013-10-21 10:42:00,55.0,41.9,30.07,ENE,64,0.0,4.9,61,0.00,,,0.00,meteobridge,2013-10-21 14:42:00,
2013-10-21 10:47:00,55.2,42.1,30.06,WSW,244,10.1,10.1,61,0.00,,,0.00,meteobridge,2013-10-21 14:47:00,
2013-10-21 10:52:00,55.4,42.3,30.06,SSW,203,2.0,6.0,61,0.00,,,0.00,meteobridge,2013-10-21 14:52:00,
2013-10-21 10:57:00,55.8,42.4,30.06,South,174,0.0,6.0,61,0.00,,,0.00,meteobridge,2013-10-21 14:57:00,
2013-10-21 11:02:00,56.1,42.4,30.06,SSW,196,2.9,6.0,60,0.00,,,0.00,meteobridge,2013-10-21 15:02:00,
2013-10-21 11:07:00,56.8,43.2,30.06,SSW,199,4.9,6.0,60,0.00,,,0.00,meteobridge,2013-10-21 15:07:00,
2013-10-21 11:12:00,57.2,43.0,30.06,SSW,202,2.0,6.0,59,0.00,,,0.00,meteobridge,2013-10-21 15:12:00,
2013-10-21 11:17:00,57.4,42.3,30.06,SW,232,0.9,6.9,57,0.00,,,0.00,meteobridge,2013-10-21 15:17:00,
2013-10-21 11:22:00,57.9,42.3,30.06,SSW,206,2.0,10.1,56,0.00,,,0.00,meteobridge,2013-10-21 15:22:00,
2013-10-21 11:27:00,58.5,42.8,30.06,South,175,0.9,6.0,56,0.00,,,0.00,meteobridge,2013-10-21 15:27:00,
2013-10-21 11:32:00,59.0,43.3,30.05,SE,130,0.0,6.0,56,0.00,,,0.00,meteobridge,2013-10-21 15:32:00,
2013-10-21 11:37:00,59.7,43.5,30.05,WSW,241,0.9,2.0,55,0.00,,,0.00,meteobridge,2013-10-21 15:37:00,
2013-10-21 11:42:00,60.4,42.8,30.05,SSW,205,6.0,6.9,52,0.00,,,0.00,meteobridge,2013-10-21 15:42:00,
2013-10-21 11:47:00,60.6,43.0,30.05,SSW,205,0.9,4.9,52,0.00,,,0.00,meteobridge,2013-10-21 15:47:00,
2013-10-21 11:52:00,61.5,43.7,30.05,West,265,0.9,6.0,52,0.00,,,0.00,meteobridge,2013-10-21 15:52:00,
2013-10-21 11:57:00,61.9,42.4,30.05,SSW,193,2.0,6.0,49,0.00,,,0.00,meteobridge,2013-10-21 15:57:00,
2013-10-21 12:02:00,62.6,43.2,30.04,West,260,10.1,10.1,49,0.00,,,0.00,meteobridge,2013-10-21 16:02:00,
2013-10-21 12:07:00,62.6,41.0,30.04,SSW,199,2.0,13.0,45,0.00,,,0.00,meteobridge,2013-10-21 16:07:00,
2013-10-21 12:12:00,63.0,41.4,30.04,WNW,288,0.0,8.1,45,0.00,,,0.00,meteobridge,2013-10-21 16:12:00,
2013-10-21 12:17:00,63.1,41.5,30.04,WSW,257,2.9,8.1,45,0.00,,,0.00,meteobridge,2013-10-21 16:17:00,
2013-10-21 12:22:00,63.5,41.7,30.04,WSW,240,6.0,10.1,45,0.00,,,0.00,meteobridge,2013-10-21 16:22:00,
2013-10-21 12:27:00,63.5,40.6,30.04,South,191,4.0,10.1,43,0.00,,,0.00,meteobridge,2013-10-21 16:27:00,
2013-10-21 12:32:00,63.3,39.9,30.03,SSW,200,6.0,10.1,42,0.00,,,0.00,meteobridge,2013-10-21 16:32:00,
2013-10-21 12:37:00,63.5,40.6,30.03,West,263,10.1,10.1,43,0.00,,,0.00,meteobridge,2013-10-21 16:37:00,
2013-10-21 12:42:00,63.5,40.6,30.03,SW,229,6.0,6.0,43,0.00,,,0.00,meteobridge,2013-10-21 16:42:00,
2013-10-21 12:47:00,64.2,41.2,30.03,ESE,123,2.9,6.9,43,0.00,,,0.00,meteobridge,2013-10-21 16:47:00,
2013-10-21 12:52:00,64.0,39.9,30.03,SSW,199,2.0,14.1,41,0.00,,,0.00,meteobridge,2013-10-21 16:52:00,
2013-10-21 12:57:00,63.9,40.3,30.03,SSW,200,2.0,11.0,42,0.00,,,0.00,meteobridge,2013-10-21 16:57:00,
2013-10-21 13:02:00,64.2,41.2,30.02,WSW,247,2.0,6.0,43,0.00,,,0.00,meteobridge,2013-10-21 17:02:00,
2013-10-21 13:07:00,65.1,40.8,30.02,SW,223,0.9,6.9,41,0.00,,,0.00,meteobridge,2013-10-21 17:07:00,
2013-10-21 13:12:00,65.3,39.7,30.02,SW,234,6.0,10.1,39,0.00,,,0.00,meteobridge,2013-10-21 17:12:00,
2013-10-21 13:17:00,65.5,40.5,30.01,WNW,282,6.0,10.1,40,0.00,,,0.00,meteobridge,2013-10-21 17:17:00,
2013-10-21 13:22:00,65.7,40.1,30.01,WSW,257,6.0,6.9,39,0.00,,,0.00,meteobridge,2013-10-21 17:22:00,
2013-10-21 13:27:00,66.4,41.4,30.01,South,184,2.9,6.9,40,0.00,,,0.00,meteobridge,2013-10-21 17:27:00,
2013-10-21 13:32:00,66.4,39.9,30.00,WSW,247,6.0,6.0,38,0.00,,,0.00,meteobridge,2013-10-21 17:32:00,
2013-10-21 13:37:00,66.6,40.1,30.00,WNW,282,6.0,10.1,38,0.00,,,0.00,meteobridge,2013-10-21 17:37:00,
2013-10-21 13:42:00,66.6,37.4,30.00,WSW,243,2.9,12.1,34,0.00,,,0.00,meteobridge,2013-10-21 17:42:00,
2013-10-21 13:48:00,66.4,38.7,29.98,South,186,0.0,6.9,36,0.00,,,0.00,meteobridge,2013-10-21 17:48:00,
2013-10-21 13:53:00,66.9,38.3,29.98,West,267,0.0,6.9,35,0.00,,,0.00,meteobridge,2013-10-21 17:53:00,
2013-10-21 13:58:00,67.1,37.8,29.98,WNW,301,4.0,10.1,34,0.00,,,0.00,meteobridge,2013-10-21 17:58:00,
2013-10-21 14:03:00,67.6,39.7,29.97,South,185,0.0,4.9,36,0.00,,,0.00,meteobridge,2013-10-21 18:03:00,
2013-10-21 14:08:00,68.2,38.7,29.97,West,261,0.0,6.0,34,0.00,,,0.00,meteobridge,2013-10-21 18:08:00,
2013-10-21 14:13:00,68.4,38.8,29.97,WSW,256,2.0,6.9,34,0.00,,,0.00,meteobridge,2013-10-21 18:13:00,
2013-10-21 14:18:00,68.2,37.2,29.97,SSW,200,0.0,8.1,32,0.00,,,0.00,meteobridge,2013-10-21 18:18:00,
2013-10-21 14:23:00,68.4,38.1,29.97,WNW,295,4.0,10.1,33,0.00,,,0.00,meteobridge,2013-10-21 18:23:00,
2013-10-21 14:28:00,68.4,36.5,29.97,WSW,237,2.0,11.0,31,0.00,,,0.00,meteobridge,2013-10-21 18:28:00,
2013-10-21 14:33:00,68.4,37.4,29.96,SSW,196,2.9,2.9,32,0.00,,,0.00,meteobridge,2013-10-21 18:33:00,
2013-10-21 14:38:00,68.4,37.4,29.96,SE,130,4.0,10.1,32,0.00,,,0.00,meteobridge,2013-10-21 18:38:00,
2013-10-21 14:43:00,68.2,37.2,29.96,South,185,4.9,6.0,32,0.00,,,0.00,meteobridge,2013-10-21 18:43:00,
2013-10-21 14:48:00,68.5,36.0,29.96,SW,217,6.0,6.9,30,0.00,,,0.00,meteobridge,2013-10-21 18:48:00,
2013-10-21 14:53:00,68.4,36.5,29.96,SW,215,0.0,8.1,31,0.00,,,0.00,meteobridge,2013-10-21 18:53:00,
2013-10-21 14:58:00,68.2,35.6,29.96,SSW,196,0.9,12.1,30,0.00,,,0.00,meteobridge,2013-10-21 18:58:00,
2013-10-21 15:03:00,68.4,36.5,29.95,South,175,0.0,6.9,31,0.00,,,0.00,meteobridge,2013-10-21 19:03:00,
2013-10-21 15:08:00,68.9,36.1,29.95,West,270,6.0,11.0,30,0.00,,,0.00,meteobridge,2013-10-21 19:08:00,
2013-10-21 15:13:00,69.1,37.2,29.95,WSW,240,6.0,13.0,31,0.00,,,0.00,meteobridge,2013-10-21 19:13:00,
2013-10-21 15:18:00,68.7,36.9,29.95,SSE,161,0.0,6.0,31,0.00,,,0.00,meteobridge,2013-10-21 19:18:00,
2013-10-21 15:23:00,68.9,37.0,29.95,SSW,195,0.9,4.9,31,0.00,,,0.00,meteobridge,2013-10-21 19:23:00,
2013-10-21 15:28:00,69.1,36.3,29.95,SSE,161,0.9,6.0,30,0.00,,,0.00,meteobridge,2013-10-21 19:28:00,
2013-10-21 15:33:00,68.9,37.0,29.95,South,178,2.9,11.0,31,0.00,,,0.00,meteobridge,2013-10-21 19:33:00,
2013-10-21 15:38:00,68.9,36.1,29.95,SW,229,2.9,10.1,30,0.00,,,0.00,meteobridge,2013-10-21 19:38:00,
2013-10-21 15:43:00,69.3,37.4,29.95,SSW,209,8.1,10.1,31,0.00,,,0.00,meteobridge,2013-10-21 19:43:00,
2013-10-21 15:48:00,69.4,37.4,29.94,SSE,165,6.0,8.1,31,0.00,,,0.00,meteobridge,2013-10-21 19:48:00,
2013-10-21 15:53:00,69.4,37.4,29.94,SW,222,2.9,2.9,31,0.00,,,0.00,meteobridge,2013-10-21 19:53:00,
2013-10-21 15:58:00,69.3,37.4,29.94,WSW,247,8.1,10.1,31,0.00,,,0.00,meteobridge,2013-10-21 19:58:00,
2013-10-21 16:03:00,69.4,37.4,29.93,SSE,164,0.0,0.9,31,0.00,,,0.00,meteobridge,2013-10-21 20:03:00,
2013-10-21 16:08:00,70.0,37.9,29.93,South,171,0.9,4.9,31,0.00,,,0.00,meteobridge,2013-10-21 20:08:00,
2013-10-21 16:13:00,70.2,37.2,29.93,SW,219,0.9,6.0,30,0.00,,,0.00,meteobridge,2013-10-21 20:13:00,
2013-10-21 16:18:00,69.8,37.0,29.93,SSW,202,4.0,8.1,30,0.00,,,0.00,meteobridge,2013-10-21 20:18:00,
2013-10-21 16:23:00,69.8,37.8,29.93,South,191,8.1,11.0,31,0.00,,,0.00,meteobridge,2013-10-21 20:23:00,
2013-10-21 16:28:00,69.6,36.9,29.93,WSW,251,2.9,10.1,30,0.00,,,0.00,meteobridge,2013-10-21 20:28:00,
2013-10-21 16:33:00,69.3,36.5,29.92,SSE,148,2.0,11.0,30,0.00,,,0.00,meteobridge,2013-10-21 20:33:00,
2013-10-21 16:39:00,68.9,38.7,29.92,SE,128,0.0,4.9,33,0.00,,,0.00,meteobridge,2013-10-21 20:39:00,
2013-10-21 16:44:00,68.9,37.0,29.92,SSE,158,2.0,13.0,31,0.00,,,0.00,meteobridge,2013-10-21 20:44:00,
2013-10-21 16:49:00,68.5,36.7,29.92,SSW,195,2.0,6.0,31,0.00,,,0.00,meteobridge,2013-10-21 20:49:00,
2013-10-21 16:54:00,68.7,37.6,29.92,SSW,212,0.0,0.9,32,0.00,,,0.00,meteobridge,2013-10-21 20:54:00,
2013-10-21 16:59:00,68.5,36.0,29.92,SSE,155,0.9,10.1,30,0.00,,,0.00,meteobridge,2013-10-21 20:59:00,
2013-10-21 17:04:00,68.4,37.4,29.92,WSW,240,2.0,6.0,32,0.00,,,0.00,meteobridge,2013-10-21 21:04:00,
2013-10-21 17:09:00,68.7,39.2,29.92,SW,227,0.0,4.0,34,0.00,,,0.00,meteobridge,2013-10-21 21:09:00,
2013-10-21 17:14:00,68.9,37.0,29.92,South,184,2.0,14.1,31,0.00,,,0.00,meteobridge,2013-10-21 21:14:00,
2013-10-21 17:19:00,68.4,38.1,29.92,SSW,213,0.9,6.0,33,0.00,,,0.00,meteobridge,2013-10-21 21:19:00,
2013-10-21 17:24:00,68.4,38.1,29.92,SW,215,0.9,6.0,33,0.00,,,0.00,meteobridge,2013-10-21 21:24:00,
2013-10-21 17:29:00,68.5,38.3,29.92,SSW,200,4.9,6.0,33,0.00,,,0.00,meteobridge,2013-10-21 21:29:00,
2013-10-21 17:34:00,68.4,38.1,29.92,SW,219,4.9,6.9,33,0.00,,,0.00,meteobridge,2013-10-21 21:34:00,
2013-10-21 17:39:00,68.4,38.8,29.92,South,184,0.0,4.9,34,0.00,,,0.00,meteobridge,2013-10-21 21:39:00,
2013-10-21 17:44:00,68.4,38.8,29.91,WSW,239,2.9,4.0,34,0.00,,,0.00,meteobridge,2013-10-21 21:44:00,
2013-10-21 17:49:00,68.4,39.6,29.91,WSW,241,0.0,0.0,35,0.00,,,0.00,meteobridge,2013-10-21 21:49:00,
2013-10-21 17:54:00,68.4,39.6,29.91,WSW,241,0.0,0.0,35,0.00,,,0.00,meteobridge,2013-10-21 21:54:00,
2013-10-21 17:59:00,68.4,39.6,29.92,SW,217,0.9,2.0,35,0.00,,,0.00,meteobridge,2013-10-21 21:59:00,
2013-10-21 18:04:00,67.8,39.2,29.92,SW,227,2.9,2.9,35,0.00,,,0.00,meteobridge,2013-10-21 22:04:00,
2013-10-21 18:09:00,67.6,39.7,29.92,SW,219,0.0,0.9,36,0.00,,,0.00,meteobridge,2013-10-21 22:09:00,
2013-10-21 18:15:00,66.9,40.5,29.92,SW,219,0.0,2.0,38,0.00,,,0.00,meteobridge,2013-10-21 22:15:00,
2013-10-21 18:20:00,66.0,40.3,29.92,SW,219,0.0,2.0,39,0.00,,,0.00,meteobridge,2013-10-21 22:20:00,
2013-10-21 18:25:00,65.5,40.5,29.92,SW,219,0.0,0.9,40,0.00,,,0.00,meteobridge,2013-10-21 22:25:00,
2013-10-21 18:31:00,64.8,41.2,29.93,SW,219,0.0,0.0,42,0.00,,,0.00,meteobridge,2013-10-21 22:31:00,
2013-10-21 18:36:00,64.2,41.2,29.93,SW,219,0.0,0.0,43,0.00,,,0.00,meteobridge,2013-10-21 22:36:00,
2013-10-21 18:41:00,63.7,42.4,29.93,SW,219,0.0,0.0,46,0.00,,,0.00,meteobridge,2013-10-21 22:41:00,
2013-10-21 18:46:00,63.1,43.2,29.93,SW,219,0.0,0.0,48,0.00,,,0.00,meteobridge,2013-10-21 22:46:00,
2013-10-21 18:51:00,62.6,44.2,29.93,SW,219,0.0,0.0,51,0.00,,,0.00,meteobridge,2013-10-21 22:51:00,
2013-10-21 18:56:00,61.9,44.6,29.93,SW,219,0.0,0.0,53,0.00,,,0.00,meteobridge,2013-10-21 22:56:00,
2013-10-21 19:02:00,60.4,45.1,29.93,SW,219,0.0,0.0,57,0.00,,,0.00,meteobridge,2013-10-21 23:02:00,
2013-10-21 19:07:00,59.5,45.1,29.93,SW,219,0.0,0.0,59,0.00,,,0.00,meteobridge,2013-10-21 23:07:00,
2013-10-21 19:12:00,58.6,45.3,29.93,SW,219,0.0,0.0,61,0.00,,,0.00,meteobridge,2013-10-21 23:12:00,
2013-10-21 19:17:00,57.9,44.6,29.93,SW,219,0.0,0.0,61,0.00,,,0.00,meteobridge,2013-10-21 23:17:00,
2013-10-21 19:22:00,57.0,44.6,29.93,SW,219,0.0,0.0,63,0.00,,,0.00,meteobridge,2013-10-21 23:22:00,
2013-10-21 19:27:00,56.5,44.8,29.93,SW,219,0.0,0.0,65,0.00,,,0.00,meteobridge,2013-10-21 23:27:00,
2013-10-21 19:33:00,55.9,44.8,29.93,SW,219,0.0,0.0,66,0.00,,,0.00,meteobridge,2013-10-21 23:33:00,
2013-10-21 19:38:00,55.8,45.3,29.93,SW,219,0.0,0.0,68,0.00,,,0.00,meteobridge,2013-10-21 23:38:00,
2013-10-21 19:43:00,55.4,45.3,29.93,SW,219,0.0,0.0,69,0.00,,,0.00,meteobridge,2013-10-21 23:43:00,
2013-10-21 19:48:00,55.2,45.1,29.93,SW,219,0.0,0.0,69,0.00,,,0.00,meteobridge,2013-10-21 23:48:00,
2013-10-21 19:53:00,55.0,45.1,29.93,SW,219,0.0,0.0,69,0.00,,,0.00,meteobridge,2013-10-21 23:53:00,
2013-10-21 19:58:00,55.0,45.1,29.93,SW,219,0.0,0.0,69,0.00,,,0.00,meteobridge,2013-10-21 23:58:00,
2013-10-21 20:03:00,54.9,45.3,29.92,SW,219,0.0,0.0,70,0.00,,,0.00,meteobridge,2013-10-22 00:03:00,
2013-10-21 20:08:00,54.9,45.7,29.92,SW,219,0.0,0.0,71,0.00,,,0.00,meteobridge,2013-10-22 00:08:00,
2013-10-21 20:14:00,54.9,45.3,29.92,SW,219,0.0,0.0,70,0.00,,,0.00,meteobridge,2013-10-22 00:14:00,
2013-10-21 20:19:00,54.9,45.3,29.92,SW,219,0.0,0.0,70,0.00,,,0.00,meteobridge,2013-10-22 00:19:00,
2013-10-21 20:24:00,54.9,45.7,29.92,SW,219,0.0,0.0,71,0.00,,,0.00,meteobridge,2013-10-22 00:24:00,
2013-10-21 20:30:00,54.9,46.0,29.92,SW,219,0.0,0.0,72,0.00,,,0.00,meteobridge,2013-10-22 00:30:00,
2013-10-21 20:35:00,54.9,46.0,29.92,SW,219,0.0,0.0,72,0.00,,,0.00,meteobridge,2013-10-22 00:35:00,
2013-10-21 20:40:00,54.9,46.0,29.92,SW,219,0.0,0.0,72,0.00,,,0.00,meteobridge,2013-10-22 00:40:00,
2013-10-21 20:45:00,54.7,45.9,29.92,SW,219,0.0,0.0,72,0.00,,,0.00,meteobridge,2013-10-22 00:45:00,
2013-10-21 20:50:00,54.5,46.0,29.92,SW,219,0.0,0.0,73,0.00,,,0.00,meteobridge,2013-10-22 00:50:00,
2013-10-21 20:55:00,54.1,45.7,29.92,SW,219,0.0,0.0,73,0.00,,,0.00,meteobridge,2013-10-22 00:55:00,
2013-10-21 21:00:00,54.1,46.0,29.92,SW,219,0.0,0.0,74,0.00,,,0.00,meteobridge,2013-10-22 01:00:00,
2013-10-21 21:05:00,54.0,45.9,29.92,SW,219,0.0,0.0,74,0.00,,,0.00,meteobridge,2013-10-22 01:05:00,
2013-10-21 21:11:00,54.0,45.9,29.92,SW,219,0.0,0.0,74,0.00,,,0.00,meteobridge,2013-10-22 01:11:00,
2013-10-21 21:16:00,54.1,46.0,29.91,SW,219,0.0,0.0,74,0.00,,,0.00,meteobridge,2013-10-22 01:16:00,
2013-10-21 21:21:00,54.1,45.7,29.91,SW,219,0.0,0.0,73,0.00,,,0.00,meteobridge,2013-10-22 01:21:00,
2013-10-21 21:26:00,54.7,45.1,29.91,SW,219,0.0,0.0,70,0.00,,,0.00,meteobridge,2013-10-22 01:26:00,
2013-10-21 21:32:00,55.0,45.5,29.91,SW,219,0.0,0.0,70,0.00,,,0.00,meteobridge,2013-10-22 01:32:00,
2013-10-21 21:37:00,55.2,44.8,29.91,SW,219,0.0,0.0,68,0.00,,,0.00,meteobridge,2013-10-22 01:37:00,
2013-10-21 21:42:00,55.6,44.8,29.91,SW,219,0.0,0.0,67,0.00,,,0.00,meteobridge,2013-10-22 01:42:00,
2013-10-21 21:47:00,55.8,44.2,29.91,SW,219,0.0,0.0,65,0.00,,,0.00,meteobridge,2013-10-22 01:47:00,
2013-10-21 21:52:00,55.9,43.5,29.91,SW,219,0.0,0.9,63,0.00,,,0.00,meteobridge,2013-10-22 01:52:00,
2013-10-21 21:57:00,56.5,44.1,29.91,SW,219,0.0,0.0,63,0.00,,,0.00,meteobridge,2013-10-22 01:57:00,
2013-10-21 22:03:00,56.5,44.4,29.91,SW,219,0.0,0.0,64,0.00,,,0.00,meteobridge,2013-10-22 02:03:00,
2013-10-21 22:08:00,56.5,45.3,29.91,SW,219,0.0,0.0,66,0.00,,,0.00,meteobridge,2013-10-22 02:08:00,
2013-10-21 22:13:00,56.3,45.5,29.91,SW,219,0.0,0.0,67,0.00,,,0.00,meteobridge,2013-10-22 02:13:00,
2013-10-21 22:18:00,55.9,45.5,29.91,SW,219,0.0,0.0,68,0.00,,,0.00,meteobridge,2013-10-22 02:18:00,
2013-10-21 22:23:00,55.6,45.5,29.91,SW,219,0.0,0.0,69,0.00,,,0.00,meteobridge,2013-10-22 02:23:00,
2013-10-21 22:28:00,55.0,45.5,29.91,SW,219,0.0,0.0,70,0.00,,,0.00,meteobridge,2013-10-22 02:28:00,
2013-10-21 22:33:00,54.7,45.5,29.91,SW,219,0.0,0.0,71,0.00,,,0.00,meteobridge,2013-10-22 02:33:00,
2013-10-21 22:39:00,54.3,45.5,29.91,SW,219,0.0,0.0,72,0.00,,,0.00,meteobridge,2013-10-22 02:39:00,
2013-10-21 22:44:00,54.1,45.7,29.91,SW,219,0.0,0.0,73,0.00,,,0.00,meteobridge,2013-10-22 02:44:00,
2013-10-21 22:49:00,54.1,45.7,29.91,SW,219,0.0,0.0,73,0.00,,,0.00,meteobridge,2013-10-22 02:49:00,
2013-10-21 22:54:00,54.1,45.7,29.91,SW,219,0.0,0.0,73,0.00,,,0.00,meteobridge,2013-10-22 02:54:00,
2013-10-21 23:00:00,54.1,45.0,29.91,SW,219,0.0,0.0,71,0.00,,,0.00,meteobridge,2013-10-22 03:00:00,
2013-10-21 23:05:00,54.5,44.2,29.91,SW,219,0.0,0.0,68,0.00,,,0.00,meteobridge,2013-10-22 03:05:00,
2013-10-21 23:10:00,55.0,43.9,29.91,SW,219,0.0,0.0,66,0.00,,,0.00,meteobridge,2013-10-22 03:10:00,
2013-10-21 23:15:00,55.0,43.9,29.90,SW,219,0.0,0.0,66,0.00,,,0.00,meteobridge,2013-10-22 03:15:00,
2013-10-21 23:20:00,55.0,43.9,29.90,SW,219,0.0,0.0,66,0.00,,,0.00,meteobridge,2013-10-22 03:20:00,
2013-10-21 23:25:00,55.0,43.9,29.90,SW,219,0.0,0.0,66,0.00,,,0.00,meteobridge,2013-10-22 03:25:00,
2013-10-21 23:30:00,55.0,44.2,29.90,SW,219,0.0,0.0,67,0.00,,,0.00,meteobridge,2013-10-22 03:30:00,
2013-10-21 23:35:00,54.7,44.2,29.90,SW,219,2.0,2.0,68,0.00,,,0.00,meteobridge,2013-10-22 03:35:00,
2013-10-21 23:41:00,54.5,44.2,29.90,SW,219,0.0,0.0,68,0.00,,,0.00,meteobridge,2013-10-22 03:41:00,
2013-10-21 23:46:00,54.5,43.7,29.90,SW,219,0.0,0.0,67,0.00,,,0.00,meteobridge,2013-10-22 03:46:00,
2013-10-21 23:51:00,54.9,43.7,29.90,SW,219,0.0,0.0,66,0.00,,,0.00,meteobridge,2013-10-22 03:51:00,
2013-10-21 23:56:00,55.0,43.5,29.90,SW,219,0.0,0.9,65,0.00,,,0.00,meteobridge,2013-10-22 03:56:00,